When you browse on this site, cookies collect data to enhance your experience and personalize the content and advertising you see.
Visit our Privacy Policy to learn more. By continuing to use the site, you agree to this use of cookies and data.
  • In France
  • List of Countries
  • For 7 days
  • Water Temperature
  • Weather Map
  • Weather Widgets
  • user-avatar
    Login

    Hourly Weather Prince George

    Today, 25 May, Monday

    Time Temperature Precipitation Wind Pressure Humidity
    00:00 +10°C° 1.2 mm 1 mps 699 mmHg 95%
    01:00 +10°C° 1.2 mm 1 mps 699 mmHg 96%
    02:00 +10°C° 0.4 mm 1 mps 699 mmHg 96%
    03:00 +9°C° 0.4 mm 1 mps 699 mmHg 97%
    04:00 +9°C° 0.4 mm 1 mps 699 mmHg 97%
    05:00 +10°C° 0.2 mm 1 mps 699 mmHg 95%
    06:00 +10°C° 0.2 mm 1 mps 699 mmHg 93%
    07:00 +11°C° 0.2 mm 1 mps 699 mmHg 91%
    08:00 +10°C° 0.5 mm 2 mps 699 mmHg 89%
    09:00 +10°C° 0.5 mm 2 mps 698 mmHg 88%
    10:00 +10°C° 0.5 mm 2 mps 698 mmHg 87%
    11:00 +13°C° 0.2 mm 2 mps 698 mmHg 77%
    12:00 +15°C° 0.2 mm 2 mps 698 mmHg 67%
    13:00 +17°C° 0.2 mm 2 mps 698 mmHg 58%
    14:00 +17°C° 0.6 mm 2 mps 698 mmHg 60%
    15:00 +16°C° 0.6 mm 2 mps 697 mmHg 62%
    16:00 +16°C° 0.6 mm 3 mps 697 mmHg 63%
    17:00 +15°C° 0.1 mm 2 mps 697 mmHg 63%
    18:00 +15°C° 0.1 mm 2 mps 697 mmHg 63%
    19:00 +14°C° 0.1 mm 2 mps 697 mmHg 62%
    20:00 +12°C° 0 mm 2 mps 698 mmHg 64%
    21:00 +9°C° 0 mm 2 mps 698 mmHg 65%
    22:00 +7°C° 0 mm 2 mps 698 mmHg 66%
    23:00 +7°C° 0 mm 2 mps 699 mmHg 68%

    Tomorrow, 26 May, Tuesday

    Time Temperature Precipitation Wind Pressure Humidity
    00:00 +6°C° 0 mm 2 mps 699 mmHg 70%
    01:00 +5°C° 0 mm 2 mps 700 mmHg 72%
    02:00 +5°C° 0 mm 2 mps 700 mmHg 73%
    03:00 +5°C° 0 mm 2 mps 700 mmHg 75%
    04:00 +4°C° 0 mm 2 mps 701 mmHg 76%
    05:00 +6°C° 0 mm 2 mps 701 mmHg 69%
    06:00 +7°C° 0 mm 2 mps 701 mmHg 62%
    07:00 +9°C° 0 mm 3 mps 702 mmHg 55%
    08:00 +10°C° 0 mm 3 mps 702 mmHg 49%
    09:00 +12°C° 0 mm 3 mps 702 mmHg 43%
    10:00 +13°C° 0 mm 3 mps 702 mmHg 37%
    11:00 +14°C° 0 mm 3 mps 702 mmHg 35%
    12:00 +15°C° 0 mm 4 mps 702 mmHg 32%
    13:00 +15°C° 0 mm 4 mps 701 mmHg 30%
    14:00 +17°C° 0 mm 4 mps 701 mmHg 30%
    15:00 +17°C° 0 mm 4 mps 701 mmHg 30%
    16:00 +17°C° 0 mm 4 mps 701 mmHg 29%
    17:00 +16°C° 0 mm 3 mps 702 mmHg 35%
    18:00 +14°C° 0 mm 3 mps 702 mmHg 41%
    19:00 +14°C° 0 mm 2 mps 702 mmHg 46%
    20:00 +12°C° 0 mm 2 mps 702 mmHg 50%
    21:00 +9°C° 0 mm 2 mps 703 mmHg 54%
    22:00 +7°C° 0 mm 2 mps 703 mmHg 57%
    23:00 +7°C° 0 mm 1 mps 704 mmHg 60%

    Day after tomorrow, 27 May, Wednesday

    Time Temperature Precipitation Wind Pressure Humidity
    00:00 +6°C° 0 mm 1 mps 704 mmHg 62%
    01:00 +5°C° 0 mm 1 mps 704 mmHg 64%
    02:00 +4°C° 0 mm 1 mps 705 mmHg 66%
    03:00 +4°C° 0 mm 1 mps 705 mmHg 68%
    04:00 +3°C° 0 mm 1 mps 705 mmHg 70%
    05:00 +6°C° 0 mm 1 mps 705 mmHg 63%
    06:00 +8°C° 0 mm 1 mps 706 mmHg 56%
    07:00 +10°C° 0 mm 0 mps 706 mmHg 48%
    08:00 +12°C° 0 mm 0 mps 706 mmHg 43%
    09:00 +15°C° 0 mm 0 mps 706 mmHg 38%
    10:00 +17°C° 0 mm 0 mps 706 mmHg 33%
    11:00 +20°C° 0 mm 1 mps 706 mmHg 31%
    12:00 +20°C° 0 mm 1 mps 706 mmHg 28%
    13:00 +21°C° 0 mm 1 mps 706 mmHg 26%
    14:00 +21°C° 0 mm 1 mps 706 mmHg 26%
    15:00 +21°C° 0 mm 1 mps 705 mmHg 26%
    16:00 +20°C° 0 mm 1 mps 705 mmHg 26%
    17:00 +19°C° 0 mm 1 mps 705 mmHg 33%
    18:00 +18°C° 0 mm 1 mps 704 mmHg 41%
    19:00 +15°C° 0 mm 2 mps 704 mmHg 48%
    20:00 +14°C° 0 mm 1 mps 704 mmHg 48%
    21:00 +13°C° 0 mm 1 mps 705 mmHg 48%
    22:00 +12°C° 0 mm 1 mps 705 mmHg 48%
    23:00 +11°C° 0 mm 1 mps 705 mmHg 47%

    28 May, Thursday

    Time Temperature Precipitation Wind Pressure Humidity
    00:00 +11°C° 0 mm 1 mps 705 mmHg 47%
    01:00 +11°C° 0 mm 1 mps 705 mmHg 47%
    02:00 +10°C° 0 mm 1 mps 705 mmHg 50%
    03:00 +9°C° 0 mm 1 mps 705 mmHg 53%
    04:00 +8°C° 0 mm 1 mps 705 mmHg 56%
    05:00 +10°C° 0 mm 1 mps 705 mmHg 53%
    06:00 +12°C° 0 mm 1 mps 705 mmHg 50%
    07:00 +13°C° 0 mm 0 mps 705 mmHg 46%
    08:00 +18°C° 0 mm 1 mps 705 mmHg 42%
    09:00 +20°C° 0 mm 1 mps 705 mmHg 38%
    10:00 +22°C° 0 mm 1 mps 705 mmHg 33%
    11:00 +23°C° 0 mm 1 mps 705 mmHg 31%
    12:00 +24°C° 0 mm 1 mps 704 mmHg 30%
    13:00 +26°C° 0 mm 2 mps 704 mmHg 28%
    14:00 +26°C° 0 mm 2 mps 703 mmHg 29%
    15:00 +25°C° 0 mm 2 mps 703 mmHg 30%
    16:00 +25°C° 0 mm 2 mps 702 mmHg 31%
    17:00 +24°C° 0 mm 2 mps 702 mmHg 39%
    18:00 +23°C° 0 mm 2 mps 701 mmHg 46%
    19:00 +21°C° 0 mm 1 mps 701 mmHg 54%
    20:00 +19°C° 0.1 mm 1 mps 701 mmHg 59%
    21:00 +16°C° 0.1 mm 1 mps 700 mmHg 65%
    22:00 +14°C° 0.1 mm 1 mps 700 mmHg 71%
    23:00 +14°C° 0.3 mm 1 mps 700 mmHg 75%

    29 May, Friday

    Time Temperature Precipitation Wind Pressure Humidity
    00:00 +14°C° 0.3 mm 1 mps 700 mmHg 80%
    01:00 +14°C° 0.3 mm 1 mps 700 mmHg 85%
    02:00 +13°C° 0.4 mm 1 mps 700 mmHg 87%
    03:00 +13°C° 0.4 mm 1 mps 699 mmHg 90%
    04:00 +12°C° 0.4 mm 1 mps 699 mmHg 92%
    05:00 +13°C° 0 mm 1 mps 700 mmHg 89%
    06:00 +14°C° 0 mm 1 mps 700 mmHg 87%
    07:00 +15°C° 0 mm 1 mps 700 mmHg 85%
    08:00 +18°C° 0 mm 1 mps 700 mmHg 74%
    09:00 +19°C° 0 mm 2 mps 700 mmHg 64%
    10:00 +21°C° 0 mm 2 mps 700 mmHg 53%
    11:00 +24°C° 0 mm 2 mps 700 mmHg 48%
    12:00 +25°C° 0 mm 2 mps 700 mmHg 42%
    13:00 +26°C° 0 mm 2 mps 699 mmHg 36%
    14:00 +26°C° 0 mm 2 mps 699 mmHg 38%
    15:00 +26°C° 0 mm 1 mps 699 mmHg 39%
    16:00 +26°C° 0 mm 1 mps 698 mmHg 40%
    17:00 +23°C° 0.3 mm 1 mps 698 mmHg 52%
    18:00 +20°C° 0.3 mm 2 mps 698 mmHg 64%
    19:00 +18°C° 0.3 mm 2 mps 697 mmHg 75%
    20:00 +16°C° 0.1 mm 2 mps 697 mmHg 82%
    21:00 +14°C° 0.1 mm 2 mps 697 mmHg 88%
    22:00 +12°C° 0.1 mm 2 mps 697 mmHg 94%
    23:00 +12°C° 0 mm 1 mps 697 mmHg 94%

    30 May, Saturday

    Time Temperature Precipitation Wind Pressure Humidity
    00:00 +11°C° 0 mm 1 mps 697 mmHg 95%
    01:00 +11°C° 0 mm 1 mps 697 mmHg 95%
    02:00 +9°C° 0 mm 0 mps 697 mmHg 95%
    03:00 +9°C° 0 mm 0 mps 697 mmHg 96%
    04:00 +8°C° 0 mm 0 mps 696 mmHg 96%
    05:00 +10°C° 0 mm 0 mps 696 mmHg 92%
    06:00 +12°C° 0 mm 0 mps 696 mmHg 87%
    07:00 +14°C° 0 mm 0 mps 696 mmHg 83%
    08:00 +15°C° 0 mm 0 mps 696 mmHg 75%
    09:00 +19°C° 0 mm 1 mps 696 mmHg 67%
    10:00 +21°C° 0 mm 1 mps 696 mmHg 59%
    11:00 +22°C° 0 mm 1 mps 695 mmHg 54%
    12:00 +24°C° 0 mm 1 mps 695 mmHg 48%
    13:00 +25°C° 0 mm 2 mps 695 mmHg 43%
    14:00 +25°C° 0 mm 2 mps 694 mmHg 43%
    15:00 +25°C° 0 mm 2 mps 694 mmHg 42%
    16:00 +25°C° 0 mm 3 mps 694 mmHg 42%
    17:00 +23°C° 0.1 mm 2 mps 694 mmHg 50%
    18:00 +21°C° 0.1 mm 1 mps 693 mmHg 59%
    19:00 +20°C° 0.1 mm 1 mps 693 mmHg 67%
    20:00 +18°C° 0 mm 1 mps 693 mmHg 69%
    21:00 +15°C° 0 mm 1 mps 693 mmHg 70%
    22:00 +13°C° 0 mm 2 mps 694 mmHg 72%
    23:00 +12°C° 0 mm 2 mps 694 mmHg 70%
    Show more